SCP
1 1 1 2 2 2 2 2 2 2 2 2 2 2 2 2 1 1 1 2 1 1 1 1 1 1 1 1 1 1 1 1 1 1 0 0 0 0 0 0 0 0 1
1 1 1 2 3 2 2 2 2 2 2 2 2 2 2 1 1 1 1 1 1 1 1 1 1 1 1 1 1 1 1 1 1 1 0 0 0 0 0 0 0 1 1
1 1 1 2 3 3 2 2 2 2 2 3 3 2 2 2 1 1 1 1 1 1 1 1 1 1 1 1 1 1 1 1 1 1 0 0 0 0 0 0 0 1 1
1 1 1 2 3 3 3 2 2 2 3 3 3 2 2 2 2 1 1 1 1 1 1 1 1 1 1 1 1 1 1 1 1 1 0 0 0 0 0 1 1 1 1
1 1 1 2 3 3 3 2 3 3 3 3 3 2 2 2 2 1 1 1 1 1 1 1 1 1 1 1 1 1 1 1 1 1 0 0 0 0 0 1 1 1 1
1 1 1 1 2 2 3 3 3 3 3 3 3 2 2 2 2 1 1 1 1 1 1 1 1 1 1 1 1 1 1 1 1 1 1 0 0 0 0 0 1 1 1
0 1 1 1 1 2 2 2 2 2 2 3 3 2 2 2 2 1 1 1 1 1 1 1 1 1 1 1 1 1 1 1 1 1 1 0 0 0 0 0 1 1 1
0 0 1 1 1 1 1 1 1 1 2 2 2 2 2 1 1 1 1 1 1 1 1 1 1 1 1 1 1 1 1 1 0 0 1 1 1 1 0 1 1 1 0
0 0 0 1 0 0 1 1 1 1 1 2 2 2 1 1 1 1 1 1 1 1 1 1 1 1 1 1 1 1 1 1 1 0 0 1 1 1 1 1 1 1 0
0 0 0 0 0 0 0 1 1 1 1 1 2 2 2 1 1 1 1 1 1 1 1 1 1 1 1 1 1 1 1 1 1 1 0 0 0 0 1 1 1 1 0
1 1 0 0 0 0 0 1 1 1 1 1 2 2 1 1 1 1 1 1 1 1 1 1 1 1 1 1 1 1 1 1 1 1 1 1 0 0 1 1 1 1 1
1 1 0 0 0 0 0 0 1 1 1 1 1 1 1 1 1 1 1 1 1 1 1 1 1 1 1 1 1 1 1 1 1 1 1 1 1 1 1 1 1 1 1
1 1 0 0 0 0 0 0 0 1 1 1 1 1 1 1 1 1 1 1 0 0 0 1 1 1 1 1 1 1 1 1 1 1 1 1 1 1 1 1 1 1 1
1 0 0 0 0 0 0 0 1 1 1 1 1 1 1 1 1 1 1 1 0 0 0 0 1 1 1 1 1 1 1 0 1 1 1 1 1 1 1 1 1 1 1
1 0 0 0 0 0 0 0 0 1 1 1 1 0 0 0 0 0 1 0 0 0 0 0 0 0 1 1 1 0 0 0 0 0 1 1 1 1 1 1 1 1 1
1 0 0 0 0 0 0 0 0 0 0 0 0 0 0 0 0 0 0 0 0 0 0 0 0 0 0 0 0 0 0 0 0 0 0 1 1 1 1 1 1 1 1
1 1 1 1 1 1 0 0 0 0 0 0 0 0 0 0 0 0 0 0 0 0 0 0 0 0 0 0 0 0 0 0 0 0 0 0 0 1 1 1 1 1 1
1 1 1 1 1 1 1 0 0 0 0 0 0 0 0 0 0 0 1 1 1 1 0 0 0 0 0 0 0 0 0 0 0 0 0 0 0 0 0 1 1 2 2
1 1 1 1 1 1 1 1 0 0 0 0 0 0 0 0 0 1 1 1 1 1 0 0 0 0 0 0 0 0 0 0 0 0 0 0 0 0 0 1 1 2 2
1 1 2 2 2 1 1 1 1 1 0 0 0 0 0 1 1 1 1 1 1 0 0 0 0 0 0 0 0 0 0 0 0 0 0 1 1 1 1 1 1 1 1
2 2 3 3 3 2 2 2 2 1 1 1 1 1 1 1 1 1 1 1 0 0 0 0 0 0 0 0 0 0 0 0 0 0 1 1 1 1 1 1 1 1 1
2 3 3 4 3 3 3 3 2 2 1 1 2 2 2 1 1 1 1 1 0 0 0 0 0 0 0 0 0 0 0 0 0 0 1 1 1 1 1 1 1 1 0
2 2 3 3 3 4 3 3 2 1 1 1 2 2 2 2 2 2 1 1 1 1 1 1 0 0 0 0 1 1 1 0 0 0 0 1 1 1 1 1 1 1 1
2 2 2 3 3 4 3 2 1 1 1 1 2 3 3 3 3 2 1 1 1 1 1 1 1 1 1 1 1 1 1 1 1 1 0 1 1 1 1 1 1 1 1
2 1 1 2 2 3 3 2 1 1 1 1 2 3 3 4 3 2 1 1 1 1 1 1 1 1 1 1 1 1 1 1 1 1 1 0 1 1 1 1 1 1 1
2 2 1 2 2 2 2 2 1 1 2 2 2 3 4 3 2 1 1 1 1 1 1 1 1 1 1 1 1 1 0 1 1 1 0 0 0 1 1 1 1 1 1
Wind_Speed
1 0 2 5 6 7 8 8 9 11 11 12 13 13 14 14 14 14 14 14 14 14 14 14 14 13 13 13 13 12 12 12 11 12 11 10 10 10 10 10 9 7 10
1 1 4 5 7 7 8 8 9 11 12 12 12 12 13 14 14 13 13 13 13 14 14 13 13 13 13 12 12 12 12 12 11 11 10 9 9 9 9 9 9 6 9
2 2 3 5 6 7 8 8 10 11 11 12 12 12 12 13 13 13 13 13 13 13 13 13 13 13 12 12 11 11 11 11 10 10 9 5 6 8 8 8 8 8 8
3 2 3 5 6 7 8 9 9 10 11 11 12 12 12 12 12 12 12 13 13 13 13 13 12 12 11 11 11 11 11 10 10 9 5 4 4 7 8 8 8 7 7
3 2 3 5 6 7 8 8 9 9 10 10 11 11 11 12 12 12 12 12 13 13 13 12 12 12 11 11 11 10 10 9 8 6 4 4 3 6 7 8 7 7 7
3 2 3 6 6 7 8 8 8 9 9 10 10 10 10 10 11 11 11 11 12 12 12 12 12 12 11 10 9 9 9 8 7 4 3 3 3 5 6 6 6 6 6
2 2 2 5 6 6 7 7 7 8 8 8 8 9 9 9 9 9 9 10 11 11 12 12 11 11 10 9 8 8 8 8 5 4 3 2 3 5 5 5 5 6 6
3 2 1 3 5 6 7 7 7 7 7 7 7 8 8 8 9 8 8 9 9 10 10 10 10 10 9 8 8 7 8 7 5 4 2 2 4 5 5 5 5 5 5
3 2 2 1 2 5 6 6 6 6 7 7 7 7 7 7 8 8 8 8 8 9 9 9 9 8 8 7 6 7 7 6 4 2 3 2 4 5 5 5 5 5 5
3 3 3 3 3 3 3 5 6 6 6 6 6 6 6 6 6 6 6 7 7 8 8 7 7 7 7 6 5 5 5 4 3 2 2 2 4 4 4 4 4 5 5
3 3 3 4 3 2 2 3 4 4 5 5 5 6 5 3 2 3 5 6 7 7 6 6 6 6 5 5 4 4 3 2 2 2 1 3 4 4 4 4 4 5 5
1 2 3 3 3 2 2 3 2 2 3 3 3 3 2 2 2 3 3 4 5 5 4 4 4 4 3 2 3 3 1 2 2 1 2 4 4 4 4 4 4 4 4
1 1 1 1 2 2 2 2 2 2 2 2 3 3 3 3 2 2 1 2 2 2 2 2 2 2 2 2 2 2 2 1 1 1 2 4 4 4 4 4 4 4 5
2 1 1 2 2 2 2 2 2 2 2 2 2 2 2 2 2 1 1 2 2 1 1 1 1 2 2 2 2 2 2 1 1 1 2 4 4 5 5 5 5 5 5
2 2 2 2 2 2 2 1 2 1 1 1 2 1 2 2 1 1 1 1 1 1 1 2 2 2 2 2 1 1 1 1 1 1 1 3 4 4 5 5 5 5 5
3 2 2 2 2 3 2 1 1 1 1 1 1 1 2 2 1 1 1 1 1 1 1 2 2 2 1 1 1 1 0 0 1 1 1 2 4 4 4 4 5 5 5
3 3 3 3 2 3 2 1 1 1 1 1 1 1 1 2 2 2 1 1 1 1 2 2 2 2 1 1 1 0 0 1 1 1 1 1 2 3 4 4 5 5 5
3 3 2 3 3 2 2 2 1 1 1 1 1 1 1 2 2 2 2 1 1 2 2 2 2 2 1 1 1 1 0 0 1 1 1 1 1 2 3 5 5 4 5
4 4 3 3 4 3 2 2 2 1 1 1 1 0 0 1 2 2 2 1 2 2 2 2 1 2 1 1 0 1 1 0 1 1 2 2 2 2 2 2 4 4 5
4 3 3 3 3 3 3 2 2 2 1 1 0 0 1 1 2 2 2 2 2 2 1 1 2 2 1 1 1 1 1 1 1 1 2 2 2 2 2 2 1 2 3
4 4 3 3 3 3 2 2 1 1 0 0 0 0 0 1 1 2 2 2 2 2 1 2 2 2 1 1 1 1 2 1 1 1 1 1 2 2 2 2 2 1 1
5 5 4 4 3 3 2 2 2 2 1 1 0 1 0 1 2 2 2 2 2 2 2 2 2 1 0 1 1 1 2 3 2 1 1 1 2 1 2 3 2 2 2
6 7 6 5 4 4 3 2 2 2 1 1 1 1 0 0 1 1 2 2 2 2 2 2 2 2 1 0 1 2 1 2 2 2 1 1 1 1 2 2 3 3 3
7 6 5 5 5 4 4 3 3 2 1 1 1 0 1 0 0 1 1 2 2 2 2 2 2 2 2 2 1 1 2 2 1 2 2 1 1 2 2 2 2 2 3
6 5 5 4 3 3 4 4 4 2 2 1 0 0 0 1 0 1 1 1 1 1 2 2 2 2 2 2 2 1 1 1 1 2 2 2 2 2 2 2 2 2 2
5 5 5 5 4 4 4 4 5 4 3 2 1 1 1 0 0 1 1 2 2 2 2 2 2 2 2 2 1 2 2 2 2 2 3 2 2 2 2 1 1 2 2
Wind_Direction
296 322 130 119 118 117 111 106 105 108 108 110 113 117 125 131 135 138 140 141 141 140 138 137 134 133 133 133 133 130 128 126 124 122 122 125 125 125 124 125 124 122 125
127 99 120 117 122 119 115 110 110 111 112 114 114 117 123 129 135 138 140 140 141 140 137 134 133 133 133 132 129 128 127 124 124 122 121 122 120 122 124 124 126 126 129
84 87 112 119 124 121 118 116 115 114 116 117 116 117 120 126 132 136 139 141 140 138 135 133 134 132 132 130 126 125 124 122 120 116 112 103 112 119 127 129 129 131 134
93 88 114 125 125 121 119 118 118 118 119 119 118 119 121 123 128 132 136 138 137 135 132 134 137 135 134 131 128 125 125 123 120 116 104 102 110 121 129 136 138 140 142
85 89 119 125 123 119 118 118 120 120 120 120 121 122 123 125 126 128 130 132 133 134 133 134 137 137 135 132 128 126 125 125 121 108 100 101 109 130 133 135 141 145 150
79 93 126 128 126 123 122 122 122 120 120 119 121 123 125 126 128 129 133 135 135 134 136 135 135 136 135 136 135 133 131 126 114 100 103 112 127 144 141 135 136 145 148
74 73 128 135 133 129 125 125 124 120 120 120 123 125 126 128 129 133 136 135 135 134 135 136 135 136 140 144 141 139 135 130 120 118 122 127 145 150 150 145 145 148 146
74 57 70 126 137 134 133 132 128 123 119 121 125 127 128 130 133 135 136 135 135 133 134 137 140 142 144 145 141 140 140 138 136 138 135 146 159 158 155 153 156 156 152
56 50 23 34 134 139 136 132 129 122 120 120 123 126 126 128 132 132 133 136 136 134 138 142 142 143 144 143 141 141 145 146 138 146 156 158 169 168 162 159 163 163 158
44 34 26 34 76 106 122 131 126 119 114 113 119 120 116 117 120 126 134 139 137 139 144 144 144 143 144 141 135 135 137 138 140 151 153 172 177 179 173 169 166 166 163
46 25 29 37 54 78 98 114 111 108 97 94 99 103 95 80 79 103 125 134 137 138 139 141 144 144 141 133 128 120 120 127 146 154 163 174 179 184 181 180 176 178 174
45 23 32 34 47 66 90 82 72 76 69 63 68 76 73 73 74 86 106 125 131 133 132 136 141 138 121 104 113 108 105 135 153 168 182 181 191 196 197 192 188 179 181
149 77 56 59 60 71 77 88 76 68 66 62 63 67 73 69 72 66 68 84 91 100 90 98 90 89 96 98 100 107 123 130 165 196 199 201 208 212 213 205 190 191 196
128 130 99 92 82 77 79 82 82 74 69 69 66 69 77 75 70 74 74 68 68 73 85 76 80 85 89 94 105 112 122 141 185 214 216 214 218 222 224 217 204 204 202
145 144 122 118 116 105 92 89 93 85 82 82 75 73 91 93 88 81 70 70 71 78 92 93 95 96 94 92 106 118 136 156 198 217 228 225 229 228 227 213 202 205 211
174 167 138 121 120 108 103 101 94 98 96 87 89 99 107 117 117 102 81 73 75 80 86 97 107 109 102 102 99 117 181 192 218 219 223 235 235 230 221 214 214 214 215
174 164 151 145 117 109 112 117 104 105 102 95 95 101 115 122 129 126 107 90 85 90 95 94 88 87 93 92 82 50 247 237 227 219 222 234 248 243 230 227 226 222 215
158 158 163 152 129 126 122 112 91 97 101 87 71 81 118 136 143 134 130 141 118 107 107 112 104 89 73 71 50 348 335 235 228 202 207 220 229 240 244 239 232 224 220
169 166 158 138 137 142 126 101 85 82 92 83 61 55 69 116 137 135 142 146 122 111 114 137 110 115 109 80 47 7 342 294 260 226 222 234 232 225 235 243 238 233 232
164 166 160 144 139 127 112 90 73 65 43 38 39 15 73 90 119 132 139 140 125 113 101 109 113 98 110 107 53 10 342 321 288 249 238 240 232 224 225 230 239 248 241
159 167 174 160 153 135 121 123 115 116 33 333 249 169 131 125 129 135 135 132 131 130 147 133 122 113 103 106 76 359 345 338 309 275 252 240 238 231 216 220 228 236 252
176 180 182 181 171 164 156 148 145 141 163 195 302 51 143 168 168 161 149 157 144 135 136 135 130 118 114 120 127 84 345 343 340 313 275 240 250 244 237 231 219 217 229
188 189 190 190 183 177 162 126 96 68 38 24 7 341 324 208 186 172 165 162 160 160 173 175 159 162 182 167 154 156 174 253 313 329 325 311 293 267 257 245 230 224 223
199 191 186 185 186 181 165 155 156 164 192 227 221 255 334 332 201 174 162 167 173 173 180 184 169 177 173 191 199 203 204 188 192 307 320 320 304 272 265 256 248 236 229
193 187 180 175 187 182 173 172 170 182 200 210 98 88 353 342 92 140 149 156 182 188 185 180 169 176 179 186 191 186 195 212 206 215 276 303 314 287 266 252 244 243 237
182 177 173 174 191 184 181 180 181 189 188 183 197 202 232 256 273 203 180 179 186 193 194 191 187 186 191 192 195 195 190 191 199 202 231 270 290 296 290 264 243 250 247